NOAA 16 DEB, 42388

Orbit data source: Space-Track

NOAA 16 DEB, 42388 is space debris in SSO originally from a launch on Thu, 21 Sep 2000 UTC launched from the Air Force Western Test Range (AFWTR). Debris objects in space refer to the collection of defunct objects orbiting the Earth. Examples of debris include non-operational satellites, rocket bodies, and fragments generated from explosions, collisions, or faulty payload assembly.

Loading next visibility...
Identifier
42388, 2000-055SG
Orbit
SSO
Country
Flag of USUS
Related business
Manufacturer
Unknown
Mission
Spacecraft
Bus & Motor
Unknown
Mass
Unknown
Launch date (UTC)
2000-09-21 (25 years ago)
Launch vehicle
Unknown
Launch site
Air Force Western Test Range (AFWTR)
Object type
Payload
Rocket body
Debris
Shape & HBR
Unknown shape, 0.1 m
Radar Cross Section
Small (<0.1 m²)

Expand to show TLE details & history
Last TLE update: 4 days ago

TLE from 4 days ago
0 NOAA 16 DEB
1 42388U 00055SG  25344.34023975  .00006458  00000-0  25329-2 0  9992
2 42388  98.6097  21.0898 0016548 133.9107 226.3445 14.29630797507187
Epoch: 2025-12-10T08:09Z
TLE epoch observation values (Epoch: 2025-12-10T08:09:56.714Z)
Latitude
0.00005°
Longitude
179.29151°
Altitude
804.1 km
Speed
7.447 km/s
True Right ascension
01h 24m 21s
True Declination
0° 00' 00"
Sunlit
Object was in full shadow at epoch
Visualization orbit readout
Latitude
Unknown
Longitude
Unknown
Altitude
Unknown
Speed
Unknown
Apparent Right ascension
Unknown
Apparent Declination
Unknown
Sunlit
N/A
Visualization observer readout
Local Sidereal Time
19:00:35
Azimuth
Unknown
Elevation
Unknown
Doppler factor
Unknown
Orbital elements
Apogee altitude
801.968 km
Perigee altitude
778.244 km
Semi-major axis
7,168.243 km
Eccentricity
0.00165
Inclination
98.6097°
RAAN
21.0898°
Arg. of periapsis
133.9107°
True anomaly
226.2075°
Mean anomaly
226.3445°
Eccentric anomaly
226.27598°
Mean motion
3.57622 °/min
Orbital period
100.66 mins
BSTAR
0.0025329
Loading maneuver chart data...
Computing Atmospheric mass density...
Loading historical data...
Loading historical data...
Loading historical data...
Loading historical data...
Loading historical data...
Loading historical data...
Loading historical data...

Documentation

Showing up to 5 results
|